Location: Berg
(48.4333°N, 13.9167°E)
Time: 08:44:55
(UTC+00:00)

CZ-2C R/B - Pass Details

Date: 18 September 2020
Orbit: 704 x 908 km, 98.1° (Epoch: 27 October)

Event Time Altitude Azimuth Distance (km) Brightness Sun altitude
Rises 17:56:27 0° 167° (SSE) 3,243 6.0 -8.5°
Reaches altitude 10° 17:58:41 10° 169° (S) 2,349 5.3 -8.8°
Maximum altitude 18:03:54 80° 256° (WSW) 841 3.3 -9.7°
Drops below altitude 10° 18:09:29 10° 345° (NNW) 2,501 6.1 -10.6°
Sets 18:11:56 0° 346° (NNW) 3,468 6.8 -11.0°
